• In Netherlands
  • List of Countries
  • For 7 days
  • Water Temperature
  • Satellite Maps
  • Weather Map
  • Weather Widgets
  • user-avatar
    Login

    Hourly Weather Salta

    Today, 25 March, Saturday

    Time Temperature Precipitation Wind Pressure Humidity
    00:00 +20°C° 0 mm 1 mps 650 mmHg 92%
    01:00 +19°C° 0 mm 1 mps 650 mmHg 92%
    02:00 +19°C° 0 mm 1 mps 649 mmHg 93%
    03:00 +18°C° 0 mm 1 mps 649 mmHg 93%
    04:00 +18°C° 0 mm 1 mps 649 mmHg 93%
    05:00 +18°C° 0 mm 1 mps 649 mmHg 94%
    06:00 +19°C° 0 mm 1 mps 650 mmHg 88%
    07:00 +21°C° 0 mm 1 mps 650 mmHg 83%
    08:00 +22°C° 0 mm 1 mps 651 mmHg 78%
    09:00 +24°C° 0 mm 1 mps 651 mmHg 71%
    10:00 +25°C° 0 mm 2 mps 651 mmHg 64%
    11:00 +26°C° 0 mm 2 mps 651 mmHg 58%
    12:00 +27°C° 0.1 mm 2 mps 651 mmHg 56%
    13:00 +28°C° 0.1 mm 2 mps 650 mmHg 55%
    14:00 +28°C° 0.1 mm 2 mps 650 mmHg 54%
    15:00 +28°C° 0.1 mm 2 mps 649 mmHg 55%
    16:00 +28°C° 0.1 mm 3 mps 649 mmHg 57%
    17:00 +28°C° 0.1 mm 3 mps 649 mmHg 58%
    18:00 +26°C° 0.1 mm 2 mps 649 mmHg 67%
    19:00 +24°C° 0.1 mm 2 mps 649 mmHg 76%
    20:00 +22°C° 0.1 mm 1 mps 649 mmHg 85%
    21:00 +21°C° 0.2 mm 1 mps 650 mmHg 87%
    22:00 +21°C° 0.2 mm 1 mps 650 mmHg 88%
    23:00 +18°C° 0.2 mm 0 mps 650 mmHg 90%

    Tomorrow, 26 March, Sunday

    Time Temperature Precipitation Wind Pressure Humidity
    00:00 +18°C° 0.3 mm 0 mps 650 mmHg 90%
    01:00 +17°C° 0.3 mm 0 mps 650 mmHg 90%
    02:00 +17°C° 0.3 mm 0 mps 649 mmHg 90%
    03:00 +16°C° 0.2 mm 0 mps 649 mmHg 88%
    04:00 +16°C° 0.2 mm 0 mps 649 mmHg 87%
    05:00 +16°C° 0.2 mm 0 mps 649 mmHg 86%
    06:00 +20°C° 0 mm 1 mps 649 mmHg 80%
    07:00 +21°C° 0 mm 1 mps 650 mmHg 74%
    08:00 +23°C° 0 mm 1 mps 651 mmHg 67%
    09:00 +25°C° 0.1 mm 1 mps 652 mmHg 62%
    10:00 +26°C° 0.1 mm 2 mps 652 mmHg 58%
    11:00 +28°C° 0.1 mm 2 mps 652 mmHg 53%
    12:00 +28°C° 0.1 mm 2 mps 651 mmHg 51%
    13:00 +29°C° 0.1 mm 3 mps 651 mmHg 49%
    14:00 +30°C° 0.1 mm 3 mps 650 mmHg 47%
    15:00 +29°C° 0.5 mm 3 mps 649 mmHg 51%
    16:00 +29°C° 0.5 mm 3 mps 649 mmHg 54%
    17:00 +28°C° 0.5 mm 3 mps 649 mmHg 57%
    18:00 +26°C° 0.8 mm 3 mps 649 mmHg 68%
    19:00 +24°C° 0.8 mm 2 mps 649 mmHg 80%
    20:00 +21°C° 0.8 mm 1 mps 649 mmHg 91%
    21:00 +21°C° 0.1 mm 1 mps 650 mmHg 91%
    22:00 +21°C° 0.1 mm 1 mps 650 mmHg 91%
    23:00 +21°C° 0.1 mm 1 mps 651 mmHg 91%

    Day after tomorrow, 27 March, Monday

    Time Temperature Precipitation Wind Pressure Humidity
    00:00 +20°C° 0.4 mm 1 mps 651 mmHg 92%
    01:00 +20°C° 0.4 mm 1 mps 650 mmHg 92%
    02:00 +19°C° 0.4 mm 1 mps 650 mmHg 93%
    03:00 +19°C° 0.3 mm 1 mps 650 mmHg 92%
    04:00 +19°C° 0.3 mm 1 mps 649 mmHg 91%
    05:00 +18°C° 0.3 mm 1 mps 649 mmHg 90%
    06:00 +20°C° 0 mm 1 mps 650 mmHg 84%
    07:00 +21°C° 0 mm 1 mps 651 mmHg 78%
    08:00 +23°C° 0 mm 1 mps 652 mmHg 72%
    09:00 +24°C° 0.1 mm 1 mps 652 mmHg 66%
    10:00 +26°C° 0.1 mm 2 mps 653 mmHg 60%
    11:00 +28°C° 0.1 mm 2 mps 653 mmHg 54%
    12:00 +28°C° 0.2 mm 3 mps 652 mmHg 53%
    13:00 +29°C° 0.2 mm 3 mps 652 mmHg 52%
    14:00 +29°C° 0.2 mm 3 mps 651 mmHg 50%
    15:00 +29°C° 0.8 mm 3 mps 651 mmHg 54%
    16:00 +28°C° 0.8 mm 3 mps 650 mmHg 58%
    17:00 +27°C° 0.8 mm 2 mps 649 mmHg 62%
    18:00 +25°C° 0.6 mm 2 mps 650 mmHg 71%
    19:00 +23°C° 0.6 mm 2 mps 650 mmHg 81%
    20:00 +21°C° 0.6 mm 1 mps 650 mmHg 90%
    21:00 +21°C° 0.4 mm 1 mps 651 mmHg 90%
    22:00 +21°C° 0.4 mm 1 mps 651 mmHg 91%
    23:00 +21°C° 0.4 mm 1 mps 652 mmHg 91%

    28 March, Tuesday

    Time Temperature Precipitation Wind Pressure Humidity
    00:00 +20°C° 0.6 mm 1 mps 652 mmHg 91%
    01:00 +20°C° 0.6 mm 1 mps 651 mmHg 91%
    02:00 +18°C° 0.6 mm 0 mps 651 mmHg 91%
    03:00 +17°C° 0.1 mm 0 mps 651 mmHg 91%
    04:00 +19°C° 0.1 mm 1 mps 651 mmHg 91%
    05:00 +19°C° 0.1 mm 1 mps 651 mmHg 91%
    06:00 +20°C° 0 mm 1 mps 652 mmHg 86%
    07:00 +21°C° 0 mm 1 mps 652 mmHg 82%
    08:00 +23°C° 0 mm 1 mps 653 mmHg 77%
    09:00 +24°C° 0 mm 1 mps 653 mmHg 70%
    10:00 +26°C° 0 mm 2 mps 653 mmHg 63%
    11:00 +27°C° 0 mm 2 mps 654 mmHg 56%
    12:00 +28°C° 0.3 mm 2 mps 653 mmHg 56%
    13:00 +28°C° 0.3 mm 3 mps 652 mmHg 56%
    14:00 +28°C° 0.3 mm 3 mps 651 mmHg 57%
    15:00 +28°C° 0.8 mm 3 mps 651 mmHg 60%
    16:00 +27°C° 0.8 mm 3 mps 650 mmHg 64%
    17:00 +26°C° 0.8 mm 3 mps 650 mmHg 68%
    18:00 +25°C° 1 mm 2 mps 650 mmHg 76%
    19:00 +23°C° 1 mm 2 mps 650 mmHg 83%
    20:00 +21°C° 1 mm 1 mps 650 mmHg 91%
    21:00 +21°C° 1 mm 1 mps 651 mmHg 91%
    22:00 +21°C° 1 mm 1 mps 651 mmHg 92%
    23:00 +20°C° 1 mm 1 mps 651 mmHg 93%

    29 March, Wednesday

    Time Temperature Precipitation Wind Pressure Humidity
    00:00 +20°C° 1.4 mm 1 mps 651 mmHg 93%
    01:00 +21°C° 1.4 mm 1 mps 651 mmHg 93%
    02:00 +21°C° 1.4 mm 1 mps 651 mmHg 92%
    03:00 +21°C° 0.2 mm 1 mps 650 mmHg 92%
    04:00 +20°C° 0.2 mm 1 mps 650 mmHg 92%
    05:00 +20°C° 0.2 mm 1 mps 650 mmHg 92%
    06:00 +21°C° 0.2 mm 1 mps 650 mmHg 90%
    07:00 +21°C° 0.2 mm 1 mps 651 mmHg 88%
    08:00 +22°C° 0.2 mm 1 mps 651 mmHg 86%
    09:00 +23°C° 0.5 mm 1 mps 651 mmHg 81%
    10:00 +24°C° 0.5 mm 2 mps 652 mmHg 77%
    11:00 +25°C° 0.5 mm 2 mps 652 mmHg 72%
    12:00 +25°C° 0.6 mm 3 mps 651 mmHg 70%
    13:00 +26°C° 0.6 mm 3 mps 650 mmHg 68%
    14:00 +27°C° 0.6 mm 3 mps 649 mmHg 65%
    15:00 +26°C° 1 mm 3 mps 649 mmHg 67%
    16:00 +26°C° 1 mm 3 mps 649 mmHg 70%
    17:00 +25°C° 1 mm 3 mps 648 mmHg 72%
    18:00 +24°C° 2.9 mm 2 mps 649 mmHg 79%
    19:00 +23°C° 2.9 mm 2 mps 649 mmHg 85%
    20:00 +22°C° 2.9 mm 1 mps 649 mmHg 92%
    21:00 +22°C° 1.6 mm 1 mps 649 mmHg 92%
    22:00 +21°C° 1.6 mm 1 mps 649 mmHg 93%
    23:00 +21°C° 1.6 mm 1 mps 649 mmHg 93%

    30 March, Thursday

    Time Temperature Precipitation Wind Pressure Humidity
    00:00 +21°C° 0.4 mm 1 mps 649 mmHg 93%
    01:00 +19°C° 0.4 mm 0 mps 648 mmHg 93%
    02:00 +19°C° 0.4 mm 0 mps 648 mmHg 93%
    03:00 +19°C° 0.1 mm 0 mps 648 mmHg 93%
    04:00 +18°C° 0.1 mm 0 mps 648 mmHg 93%
    05:00 +20°C° 0.1 mm 1 mps 648 mmHg 92%
    06:00 +21°C° 0 mm 1 mps 648 mmHg 89%
    07:00 +22°C° 0 mm 1 mps 649 mmHg 85%
    08:00 +23°C° 0 mm 1 mps 649 mmHg 82%
    09:00 +24°C° 0 mm 2 mps 649 mmHg 77%
    10:00 +25°C° 0 mm 2 mps 650 mmHg 71%
    11:00 +26°C° 0 mm 3 mps 650 mmHg 66%
    12:00 +27°C° 0.1 mm 3 mps 649 mmHg 66%
    13:00 +27°C° 0.1 mm 3 mps 648 mmHg 66%
    14:00 +27°C° 0.1 mm 3 mps 648 mmHg 66%
    15:00 +26°C° 0.1 mm 3 mps 647 mmHg 70%
    16:00 +26°C° 0.1 mm 3 mps 647 mmHg 73%
    17:00 +25°C° 0.1 mm 2 mps 647 mmHg 77%
    18:00 +24°C° 0.1 mm 2 mps 648 mmHg 82%
    19:00 +23°C° 0.1 mm 1 mps 648 mmHg 87%
    20:00 +22°C° 0.1 mm 1 mps 649 mmHg 92%
    21:00 +21°C° 0.1 mm 1 mps 649 mmHg 92%
    22:00 +21°C° 0.1 mm 1 mps 650 mmHg 91%
    23:00 +21°C° 0.1 mm 1 mps 650 mmHg 91%
    Show more